User: anonymous   Login
Location: Unspecified
(0.0000°N, 0.0000°E)
Time: 00:57:03
(UTC+01:00)
Language:

ADEOS II - Orbit

View from above orbital plane
View from above orbital plane
View from above satellite
View from above satellite

Ground track
Ground track

The orbit data is extracted from the following two-line orbital elements,

1 27597U 02056A   16342.94871921 +.00000080 +00000-0 +49658-4 0  9994
2 27597 098.3441 314.9130 0001539 125.1843 234.9482 14.27253314728140
Epoch (UTC): 07 December 2016 22:46:09
Eccentricity: 0.0001539
inclination: 98.3441°
perigee height: 800 km
apogee height: 802 km
right ascension of ascending node: 314.9130°
argument of perigee: 125.1843°
revolutions per day: 14.27253314
mean anomaly at epoch: 234.9482°
orbit number at epoch: 72814

The dashed part of the orbit path shows where the satellite is in the earth's shadow,  

DLR